Helicity
107 168 165 181 173 153 132 100 75 83 68 165 153 144 91 85 79 104 132 190 201 206 200 223 264 340 446 501 519 469 426 342 373 368 350 298 271 234 217 167 165 157 160 150
181 141 96 117 122 116 93 100 95 75 80 136 123 129 90 91 165 181 162 192 244 188 236 242 325 399 462 524 521 500 405 365 388 362 342 301 294 253 238 202 183 168 172 164
187 131 58 72 86 95 88 137 114 105 91 131 144 88 97 95 123 86 109 145 151 125 209 289 366 427 515 520 513 505 412 353 363 365 384 361 379 356 305 241 223 183 181 188
108 96 90 89 139 136 133 119 100 114 115 119 117 77 88 65 57 42 20 75 163 168 196 270 393 454 439 461 461 453 391 351 371 385 387 379 351 329 240 228 211 204 194 203
92 87 83 93 58 164 122 111 114 128 138 181 212 171 81 27 44 49 58 106 157 160 166 198 316 331 331 374 418 419 366 339 381 395 380 361 335 294 243 244 231 226 222 208
90 94 108 102 134 126 169 175 190 208 197 201 205 207 100 18 -8 37 66 151 231 245 189 151 182 216 261 291 335 359 344 330 380 378 361 335 304 274 268 266 248 241 245 241
103 104 209 227 191 206 214 283 209 215 300 213 127 163 98 88 347 286 62 175 276 256 233 223 170 145 179 200 250 289 313 319 332 317 298 282 242 226 237 254 260 272 278 276
63 35 133 158 173 165 239 290 303 226 187 138 202 164 243 357 516 684 731 639 290 343 385 434 414 283 160 157 182 215 232 261 268 260 243 216 186 211 226 253 267 265 263 263
123 126 130 120 184 244 233 310 195 273 239 227 210 254 248 626 820 967 941 631 411 333 299 379 505 546 514 247 159 153 164 192 209 200 208 194 184 207 244 247 257 259 258 257
199 152 114 199 270 295 302 240 325 393 304 252 244 260 310 499 638 650 803 655 511 482 436 396 423 487 524 500 478 422 219 130 156 161 174 187 205 218 237 257 245 243 242 266
260 264 179 265 316 287 316 317 325 323 335 314 281 306 397 466 506 597 632 736 773 653 521 440 415 391 366 372 414 402 443 390 392 363 289 253 253 257 237 234 240 261 291 302
117 213 216 189 235 214 260 225 228 262 304 362 321 395 476 553 520 524 538 407 336 363 401 414 388 372 350 345 332 337 378 426 434 394 383 377 356 348 346 353 315 301 320 326
56 146 121 109 182 362 380 387 449 459 379 334 379 511 526 562 613 581 578 400 285 220 222 260 336 373 400 422 407 389 382 382 372 375 412 397 371 351 363 403 466 505 500 515
-7 67 203 286 320 234 300 262 322 319 398 447 538 564 659 515 451 457 436 402 247 240 259 278 289 288 276 288 346 375 381 414 417 399 367 383 330 295 311 349 433 488 487 428
130 186 73 -71 3 66 83 103 32 47 143 299 226 172 194 208 133 86 94 156 214 320 364 266 202 168 164 212 251 255 268 267 248 276 306 340 336 402 401 340 296 281 263 251
124 154 140 121 37 70 70 -25 -130 -18 -19 -79 32 -28 257 201 111 112 82 142 161 156 191 174 176 185 177 163 164 180 188 166 135 134 154 234 272 290 316 339 357 376 344 321
129 96 121 100 41 -52 37 240 162 114 311 110 -53 141 297 321 285 226 235 208 199 165 125 111 72 75 59 72 68 65 75 107 116 113 150 203 208 216 236 254 280 308 336 336
70 124 145 98 110 112 123 137 74 88 139 140 141 175 140 125 68 7 1 28 69 66 84 85 65 70 57 39 33 43 45 48 51 58 95 119 154 173 185 201 216 234 227 255
87 63 68 87 107 88 76 92 83 68 59 100 101 98 85 98 67 46 42 55 73 86 98 82 60 59 59 48 40 45 57 58 53 62 56 72 96 129 144 159 160 169 167 180
76 94 76 107 85 46 82 133 63 -13 27 57 34 50 85 91 95 65 102 101 88 59 48 62 34 27 29 26 22 31 42 48 61 60 61 65 78 89 100 109 117 116 124 134
62 82 105 127 102 100 105 89 -4 65 56 50 20 17 47 65 58 126 105 91 60 52 45 22 21 22 18 22 28 33 35 33 36 57 62 72 73 74 86 99 114 113 116 120
54 69 84 62 93 84 75 10 29 24 53 51 61 45 47 60 62 53 46 43 42 37 24 19 19 29 31 41 37 36 43 36 41 42 53 61 62 72 77 79 88 96 111 117
56 49 47 63 76 44 23 11 0 13 43 43 49 42 46 49 49 44 43 42 33 29 29 30 29 37 45 36 35 41 50 48 52 55 60 61 63 67 73 73 76 76 70 80
68 78 59 61 45 39 28 25 17 -22 -6 35 22 22 40 32 35 34 41 42 40 39 40 38 43 39 40 44 61 50 61 69 71 71 77 79 80 85 98 113 109 103 104 103
58 53 40 24 37 38 53 53 5 19 22 20 17 31 39 34 46 41 37 41 42 37 34 36 41 39 55 52 50 55 72 78 85 95 94 99 106 110 113 111 119 124 119 107
53 46 62 37 45 66 61 58 52 37 30 38 34 38 54 48 40 36 41 41 42 40 61 50 54 63 64 63 72 80 89 100 103 105 112 120 129 128 119 117 128 124 136 132
Wind_Speed
40 43 42 37 35 47 59 70 78 69 62 54 59 59 59 57 55 50 38 38 35 31 26 22 22 21 20 19 19 19 17 15 13 11 10 8 7 4 7 5 4 4 6 6
49 58 57 52 52 54 63 72 77 76 62 56 71 78 74 62 56 49 39 42 36 34 31 26 24 22 23 23 21 20 19 18 16 14 12 11 8 10 9 6 5 5 7 7
58 56 46 47 57 64 69 70 75 79 76 63 71 95 75 65 59 64 55 54 44 34 29 25 24 24 23 23 21 20 20 19 17 16 14 15 15 15 15 12 12 9 10 12
68 63 66 71 74 62 78 59 67 74 70 80 52 101 73 77 80 68 67 55 43 41 37 28 23 23 23 21 18 18 18 19 19 18 21 21 21 21 22 17 16 14 15 16
56 57 53 59 60 51 68 57 60 64 69 72 68 82 83 63 76 76 61 46 39 37 35 26 24 21 19 18 19 19 20 21 22 23 25 25 26 25 22 19 19 21 21 21
71 58 59 56 53 49 47 53 56 59 64 90 74 70 90 71 66 60 54 38 33 34 38 35 28 21 23 24 22 22 22 25 26 27 28 29 28 27 26 24 25 26 27 27
68 68 59 53 63 55 50 57 78 83 79 94 64 64 77 60 71 68 57 44 41 41 43 41 36 30 28 27 27 27 28 31 28 29 31 31 32 31 30 30 31 31 32 34
87 102 60 53 56 64 59 58 72 92 87 84 59 72 60 55 59 65 61 56 45 44 44 43 43 43 37 32 31 33 34 33 32 33 35 35 35 35 34 33 35 37 38 37
78 81 55 52 52 51 62 67 64 79 77 92 83 72 52 71 74 77 73 59 47 45 45 47 49 48 47 44 35 35 36 35 35 36 37 39 40 39 38 38 38 40 40 40
76 104 80 76 61 61 63 57 72 68 91 99 87 79 77 77 77 71 65 58 52 51 51 52 50 48 48 48 48 47 47 41 39 38 39 41 42 41 41 41 43 43 43 42
80 83 97 72 75 77 71 77 73 75 80 102 107 89 68 73 70 69 64 59 57 55 54 55 53 51 50 50 51 50 51 50 47 47 44 43 45 45 45 46 47 47 46 44
73 83 109 103 79 70 75 84 81 94 100 92 100 98 62 63 62 61 59 58 55 54 54 54 54 55 56 57 55 55 55 55 53 49 45 44 45 47 49 51 51 48 47 46
76 74 101 100 81 76 77 72 76 83 86 104 106 90 57 60 62 60 61 61 60 58 57 58 58 59 61 62 62 63 62 59 57 55 53 52 53 54 53 52 51 48 47 48
64 79 87 101 94 87 89 81 76 77 88 88 81 65 64 63 63 62 63 62 62 63 62 62 62 63 64 64 64 65 64 64 62 59 59 60 60 59 58 55 54 52 51 52
64 90 88 92 91 88 81 86 79 74 72 78 69 60 57 61 57 56 59 64 67 69 70 71 70 69 68 68 67 67 67 66 62 63 61 61 58 59 60 59 59 56 54 55
80 94 95 111 95 83 74 75 72 71 70 63 60 64 68 68 62 63 67 69 69 69 70 69 70 71 71 71 71 71 71 68 64 61 61 63 64 63 62 59 57 56 54 54
81 75 79 97 73 70 87 76 65 61 62 68 78 73 77 77 73 65 69 73 74 74 73 76 76 75 72 72 71 71 68 67 66 66 66 65 63 64 63 62 60 59 59 60
66 68 66 85 79 89 58 50 47 50 55 55 61 68 73 75 70 60 65 75 78 78 79 79 75 76 74 72 71 70 68 68 68 67 66 66 64 65 65 64 62 61 62 63
45 50 60 67 68 56 55 55 60 61 63 58 65 69 74 78 73 60 69 76 78 79 81 80 77 76 76 75 74 72 70 69 68 68 66 65 64 66 64 63 64 66 67 67
51 55 50 57 66 73 55 58 55 47 69 55 63 72 76 76 78 69 80 81 80 78 78 79 76 76 76 76 75 72 73 72 71 68 66 63 62 62 64 64 65 65 65 66
59 57 54 56 56 52 51 59 45 65 65 67 65 70 73 71 68 79 81 80 78 79 79 77 76 77 75 74 74 74 73 74 69 68 68 68 68 68 67 66 64 63 63 62
51 53 51 53 56 60 54 49 57 57 61 64 66 68 74 75 75 77 79 78 80 80 78 77 77 76 75 72 71 75 75 71 71 72 70 71 72 71 70 68 67 68 67 68
47 45 50 49 50 47 50 40 44 51 63 63 67 68 74 77 78 79 79 81 80 80 80 80 79 81 77 72 77 78 77 78 77 77 76 75 74 73 73 74 73 72 69 71
43 51 43 48 40 56 35 37 47 59 68 65 62 74 74 78 79 80 82 82 82 82 83 82 83 82 84 80 78 82 84 84 84 86 83 80 79 79 74 71 71 75 75 75
45 49 49 42 44 54 41 44 65 77 73 70 79 77 76 79 83 85 85 85 85 85 85 82 84 89 86 86 88 86 85 85 86 86 85 85 83 83 83 79 78 78 74 75
46 46 48 47 48 52 59 64 78 78 76 80 81 81 75 80 84 84 85 84 83 87 82 89 88 88 91 91 89 89 86 85 86 87 85 85 87 86 86 87 88 82 86 86
Wind_Direction
296 293 290 292 288 298 301 297 294 300 305 303 300 300 304 307 308 309 302 295 283 274 274 260 248 249 243 239 235 235 237 225 224 236 254 265 275 299 322 323 339 337 337 334
293 287 292 294 295 294 295 295 296 300 305 302 301 296 299 304 306 306 300 306 295 287 282 267 255 248 242 239 241 238 234 225 229 239 256 272 270 298 300 304 308 302 302 302
285 292 307 297 295 293 292 292 295 297 301 302 302 293 299 306 309 308 307 307 304 296 284 270 253 247 252 244 240 239 236 229 237 246 260 285 295 299 292 282 285 280 284 288
289 292 288 289 289 293 290 297 297 297 299 295 305 292 301 305 303 305 306 303 307 308 305 287 269 258 249 254 254 252 240 238 247 246 262 262 261 266 279 269 274 275 277 280
294 301 300 293 293 296 292 299 298 297 296 297 295 298 303 312 306 304 308 312 311 315 317 309 295 272 265 260 261 260 256 257 257 255 262 263 268 277 282 271 266 273 276 275
290 297 298 298 303 301 302 302 301 299 297 288 292 296 298 310 314 315 321 321 317 316 318 317 309 290 281 281 275 271 267 271 268 265 267 262 264 270 273 266 263 266 270 271
298 292 289 291 292 298 294 294 292 290 288 288 300 293 297 311 317 319 316 320 319 320 320 319 310 300 292 289 286 285 282 282 276 270 270 268 268 269 267 263 262 262 265 269
291 288 290 290 281 291 285 280 283 287 289 292 300 291 300 320 324 325 325 322 322 324 325 325 322 311 301 299 296 293 290 287 281 277 276 275 275 276 272 267 267 266 267 267
295 290 301 298 295 287 292 282 285 287 290 289 288 291 291 314 315 317 316 318 321 325 327 325 325 325 321 310 304 300 298 293 287 282 280 280 280 279 273 271 271 271 271 270
298 289 290 289 290 290 287 293 287 284 284 283 286 287 289 303 308 316 319 321 320 321 323 324 325 327 329 327 324 320 311 301 294 287 283 282 284 283 277 274 272 272 272 269
306 294 289 291 284 283 286 283 285 286 279 280 283 284 299 302 307 310 315 318 320 321 323 323 322 323 328 330 329 326 323 319 313 308 299 292 288 284 282 279 277 275 273 271
304 296 287 284 289 289 285 285 282 277 279 280 279 281 301 306 310 313 315 317 323 325 325 326 327 325 324 323 324 323 322 320 318 315 310 304 300 294 290 286 283 279 275 274
305 295 293 292 290 285 287 292 291 287 284 278 278 281 301 304 306 311 312 315 317 322 323 323 324 323 321 320 318 317 319 317 315 313 309 304 299 296 294 293 292 288 283 280
301 291 286 285 289 296 290 292 295 291 283 286 284 279 298 302 303 309 311 314 315 317 319 320 320 320 319 319 318 316 314 314 312 312 308 304 300 296 295 295 294 292 288 282
303 292 290 286 288 290 290 290 294 289 291 282 286 288 302 305 306 311 314 315 315 314 314 313 314 315 317 319 318 315 313 313 313 310 310 309 309 304 300 297 295 293 288 283
307 293 293 287 288 287 287 294 290 290 289 290 290 289 306 303 303 307 309 312 315 316 316 315 315 315 318 318 317 314 312 313 315 313 310 309 308 306 304 303 303 299 296 291
301 298 295 287 293 287 282 294 295 294 299 292 287 292 298 303 306 309 311 312 312 314 314 315 317 319 319 320 318 316 317 315 310 308 308 309 308 307 306 304 302 300 297 292
301 300 296 292 295 280 289 305 303 298 302 307 303 304 304 307 305 308 320 317 313 312 312 314 317 318 318 319 319 319 319 315 313 313 312 311 311 307 304 303 302 300 296 293
332 317 307 298 295 294 297 304 302 299 296 309 307 308 309 310 310 301 316 316 313 312 313 314 316 317 318 317 317 317 318 317 316 313 313 315 312 308 308 306 302 298 294 292
337 333 312 307 298 291 303 313 314 308 294 315 315 314 313 315 306 307 314 315 315 315 316 316 318 318 317 316 317 316 315 316 315 314 314 315 314 311 308 306 303 298 296 293
325 325 318 313 307 307 318 317 323 301 303 315 317 316 316 313 312 312 315 316 319 319 319 321 320 318 320 320 318 316 315 312 316 317 314 312 310 307 306 303 301 302 300 298
334 327 323 321 313 305 327 324 313 316 318 318 317 318 317 316 316 316 317 318 319 319 321 321 320 320 322 322 321 317 316 318 316 315 313 311 308 308 305 303 301 299 298 295
336 338 329 327 321 329 331 339 340 338 325 323 321 321 321 318 318 319 319 320 320 320 319 319 318 318 320 322 319 315 315 316 314 312 310 309 308 306 304 301 300 297 296 293
346 343 340 336 341 332 342 346 344 339 328 328 328 322 322 319 320 320 319 319 319 319 318 318 317 317 316 317 317 314 314 314 311 308 307 307 305 304 305 304 302 297 295 292
346 342 341 342 343 338 346 340 329 324 325 326 322 322 321 320 319 318 318 318 318 317 317 317 317 315 315 315 314 314 315 313 309 308 307 305 304 302 300 299 298 296 295 293
352 348 344 340 341 336 329 328 323 323 325 324 322 322 325 322 320 320 319 319 319 318 319 317 316 315 314 314 314 314 314 313 310 309 308 307 305 302 300 297 296 295 293 291